Eindhoven, Netherlands

10:50 PM CET on November 17, 2017 (GMT +0100)
Eindhoven Air Base

Weather History for EHEH - March, 2014

Change the Weather History Date:

Friday, March 7, 2014

  Actual Average Record
Temperature  
Mean Temperature 46 °F -  
Max Temperature 58 °F 52 °F 60 °F (1997)
Min Temperature 34 °F 36 °F 26 °F (2006)
Degree Days  
Heating Degree Days 19    
Moisture  
Dew Point 38 °F    
Average Humidity 68    
Maximum Humidity 87    
Minimum Humidity 36    
Precipitation  
Precipitation 0.00 in - - ()
Sea Level Pressure  
Sea Level Pressure 30.29 in    
Wind  
Wind Speed 7 mph ()    
Max Wind Speed 16 mph    
Max Gust Speed -    
Visibility 5.7 miles    
Events      
Averages and records for this station are not official NWS values.
T = Trace of Precipitation, MM = Missing Value Source: Averaged Metar Reports

Daily Weather History Graph

Daily Weather History Graph

Search for Another Location

Airport or City:

Trip Planner

Search our weather history database for the weather conditions in past years. The results will help you decide how hot, cold, wet, or windy it might be!

Date:

Astronomy

Mar. 07, 2014 Rise Set
Actual Time 7:10 AM CET 6:28 PM CET
Civil Twilight 6:37 AM CET 7:02 PM CET
Nautical Twilight 5:58 AM CET 7:40 PM CET
Astronomical Twilight 5:19 AM CET 8:20 PM CET
Moon 10:09 AM CET (3/7) 12:59 AM CET (3/7)
Length of Visible Light 12h 24m
Length of Day
11h 18m
Waxing Crescent, 39% of the Moon is Illuminated
Mar 7
Waxing Crescent
Mar 8
First Quarter
Mar 16
Full
Mar 24
Last Quarter
Mar 30
New

Hourly Weather History & Observations

Time (CET) Temp. Windchill Dew Point Humidity Pressure Visibility Wind Dir Wind Speed Gust Speed Precip Events Conditions
12:00 AM 39 °F - 31 °F 65% 30.31 in 6 mi SSE 6.7 mph - -   Scattered Clouds
12:25 AM 37.4 °F 33.8 °F 32.0 °F 81% 30.30 in 6.2 mi SW 4.6 mph - N/A   Partly Cloudy
12:55 AM 37.4 °F 34.9 °F 32.0 °F 81% 30.30 in 5.6 mi South 3.5 mph - N/A   Mist
1:00 AM 38 °F - 32 °F 71% 30.31 in 6 mi South 4.5 mph - -   Partly Cloudy
1:25 AM 37.4 °F 34.9 °F 32.0 °F 81% 30.27 in 6.2 mi South 3.5 mph - N/A   Unknown
1:55 AM 39.2 °F - 32.0 °F 75% 30.27 in 6.2 mi SSE 2.3 mph - N/A   Unknown
2:00 AM 38 °F - 32 °F 71% 30.30 in 6 mi SSE 4.5 mph - -  
2:25 AM 35.6 °F 30.7 °F 30.2 °F 81% 30.27 in 5.6 mi SSE 5.8 mph - N/A   Haze
2:55 AM 37.4 °F 31.4 °F 32.0 °F 81% 30.27 in 5.6 mi SSE 8.1 mph - N/A   Partly Cloudy
3:00 AM 36 °F - 31 °F 77% 30.29 in 6 mi SSE 6.7 mph - -  
3:25 AM 37.4 °F 32.1 °F 32.0 °F 81% 30.27 in 6.2 mi SSE 6.9 mph - N/A   Unknown
3:55 AM 37.4 °F 31.4 °F 32.0 °F 81% 30.27 in 6.2 mi SSE 8.1 mph - N/A   Partly Cloudy
4:00 AM 38 °F - 32 °F 71% 30.28 in 6 mi SSE 6.7 mph - -   Mist
4:25 AM 37.4 °F 31.4 °F 32.0 °F 81% 30.27 in 5.6 mi SSE 8.1 mph - N/A   Mist
4:55 AM 37.4 °F 32.1 °F 32.0 °F 81% 30.24 in 5.0 mi SSE 6.9 mph - N/A   Partly Cloudy
5:00 AM 38 °F - 32 °F 72% 30.27 in 5 mi SSE 6.7 mph - -   Mist
5:25 AM 39.2 °F 34.2 °F 32.0 °F 75% 30.24 in 5.0 mi South 6.9 mph - N/A   Mist
5:48 AM 37.4 °F 32.1 °F 32.0 °F 81% 30.24 in 4.3 mi SSE 6.9 mph - N/A   Mist
5:55 AM 37.4 °F 32.1 °F 32.0 °F 81% 30.24 in 4.3 mi SSE 6.9 mph - N/A   Mist
6:00 AM 37 °F - 32 °F 77% 30.27 in 4 mi South 6.7 mph - -   Mist
6:25 AM 37.4 °F 33.8 °F 32.0 °F 81% 30.24 in 4.3 mi SSE 4.6 mph - N/A   Mist
6:29 AM 37.4 °F 33.8 °F 32.0 °F 81% 30.24 in 3.7 mi SSE 4.6 mph - N/A   Mist
6:55 AM 35.6 °F 30.7 °F 32.0 °F 87% 30.27 in 3.7 mi SSE 5.8 mph - N/A   Mist
7:00 AM 36 °F - 32 °F 79% 30.27 in 4 mi SSE 4.5 mph - -   Mist
7:25 AM 35.6 °F 29.9 °F 32.0 °F 87% 30.27 in 3.1 mi SSE 6.9 mph - N/A   Mist
7:55 AM 37.4 °F 32.1 °F 33.8 °F 87% 30.27 in 3.1 mi SSE 6.9 mph - N/A   Mist
8:00 AM 37 °F - 33 °F 80% 30.28 in 3 mi SSE 6.7 mph - -   Mist
8:25 AM 39.2 °F 34.2 °F 33.8 °F 81% 30.27 in 3.1 mi SSE 6.9 mph - N/A   Partly Cloudy
8:55 AM 41.0 °F 36.4 °F 35.6 °F 81% 30.27 in 3.1 mi South 6.9 mph - N/A   Partly Cloudy
9:00 AM 43 °F - 36 °F 69% 30.28 in 3 mi South 6.7 mph - -   Mist
9:25 AM 44.6 °F 40.2 °F 37.4 °F 76% 30.27 in 3.1 mi South 8.1 mph - N/A   Haze
9:55 AM 48.2 °F - 37.4 °F 66% 30.27 in 3.7 mi South 9.2 mph - N/A   Haze
10:00 AM 48 °F - 36 °F 54% 30.28 in 4 mi South 8.9 mph - -   Light Haze
10:02 AM 48.2 °F - 37.4 °F 66% 30.27 in 3.7 mi South 9.2 mph - N/A   Haze
10:25 AM 50.0 °F - 37.4 °F 62% 30.27 in 3.7 mi SSW 9.2 mph - N/A   Haze
10:55 AM 51.8 °F - 37.4 °F 58% 30.24 in 4.3 mi SSW 11.5 mph - N/A   Haze
11:00 AM 52 °F - 37 °F 45% 30.27 in 4 mi SSW 13.4 mph - -   Light Haze
11:25 AM 53.6 °F - 37.4 °F 54% 30.24 in 5.0 mi SSW 10.4 mph - N/A   Haze
11:38 AM 53.6 °F - 35.6 °F 51% 30.24 in 5.0 mi SSW 12.7 mph - N/A   Haze
11:55 AM 53.6 °F - 35.6 °F 51% 30.24 in 5.0 mi SW 11.5 mph - N/A   Haze
12:00 PM 55 °F - 38 °F 40% 30.27 in 5 mi SW 13.4 mph - -   Light Haze
12:08 PM 53.6 °F - 37.4 °F 54% 30.24 in 5.6 mi SW 12.7 mph - N/A   Haze
12:25 PM 55.4 °F - 37.4 °F 51% 30.24 in 5.6 mi SW 12.7 mph - N/A   Haze
12:55 PM 57.2 °F - 37.4 °F 48% 30.24 in 5.6 mi SW 12.7 mph - N/A   Haze
1:00 PM 56 °F - 37 °F 37% 30.27 in 6 mi SW 15.7 mph - -   Light Haze
1:25 PM 57.2 °F - 37.4 °F 48% 30.24 in 6.2 mi SW 16.1 mph - N/A   Partly Cloudy
1:55 PM 57.2 °F - 37.4 °F 48% 30.24 in 6.2 mi SSW 13.8 mph - N/A   Overcast
2:00 PM 57 °F - 38 °F 36% 30.26 in 7 mi SW 13.4 mph - -   Overcast
2:25 PM 57.2 °F - 37.4 °F 48% 30.24 in 6.2 mi SW 10.4 mph - N/A   Mostly Cloudy
2:55 PM 57.2 °F - 35.6 °F 44% 30.24 in 6.2 mi SW 11.5 mph - N/A   Overcast
3:00 PM 56 °F - 36 °F 36% 30.27 in 8 mi WSW 11.2 mph - -   Mostly Cloudy
3:25 PM 57.2 °F - 37.4 °F 48% 30.24 in 6.2 mi WSW 11.5 mph - N/A   Overcast
3:55 PM 55.4 °F - 39.2 °F 54% 30.24 in 6.2 mi WSW 8.1 mph - N/A   Overcast
4:00 PM 56 °F - 37 °F 38% 30.26 in 8 mi WSW 8.9 mph - -   Partly Cloudy
4:25 PM 55.4 °F - 37.4 °F 51% 30.24 in 6.2 mi SW 8.1 mph - N/A   Mostly Cloudy
4:55 PM 55.4 °F - 39.2 °F 54% 30.24 in 6.2 mi SW 8.1 mph - N/A   Overcast
5:00 PM 55 °F - 38 °F 42% 30.27 in 7 mi WSW 6.7 mph - -   Overcast
5:25 PM 55.4 °F - 39.2 °F 54% 30.24 in 6.2 mi WSW 6.9 mph - N/A   Overcast
5:55 PM 53.6 °F - 39.2 °F 58% 30.24 in 6.2 mi SW 8.1 mph - N/A   Overcast
6:00 PM 53 °F - 39 °F 47% 30.26 in 8 mi SSW 6.7 mph - -   Overcast
6:25 PM 53.6 °F - 39.2 °F 58% 30.27 in 6.2 mi West 6.9 mph - N/A   Overcast
6:55 PM 53.6 °F - 39.2 °F 58% 30.30 in 6.2 mi WNW 8.1 mph - N/A   Overcast
7:00 PM 54 °F - 40 °F 49% 30.34 in 7 mi WNW 11.2 mph - -   Partly Cloudy
7:25 PM 53.6 °F - 41.0 °F 62% 30.33 in 6.2 mi NW 11.5 mph - N/A   Overcast
7:47 PM 53.6 °F - 42.8 °F 67% 30.33 in 6.2 mi WNW 9.2 mph - N/A   Overcast
7:49 PM 51.8 °F - 42.8 °F 71% 30.33 in 6.2 mi WNW 8.1 mph - N/A   Overcast
7:55 PM 51.8 °F - 42.8 °F 71% 30.33 in 6.2 mi NW 6.9 mph - N/A   Overcast
8:00 PM 52 °F - 43 °F 63% 30.34 in 11 mi NW 6.7 mph - -   Overcast
8:25 PM 51.8 °F - 44.6 °F 76% 30.33 in 6.2 mi WNW 3.5 mph - N/A   Overcast
8:55 PM 51.8 °F - 44.6 °F 76% 30.36 in 6.2 mi NW 4.6 mph - N/A   Overcast
9:00 PM 51 °F - 45 °F 73% 30.37 in 11 mi WNW 4.5 mph - -   Overcast
9:25 PM 50.0 °F - 44.6 °F 82% 30.36 in 6.2 mi WNW 3.5 mph - N/A   Overcast
9:29 PM 50.0 °F - 46.4 °F 87% 30.36 in 6.2 mi West 4.6 mph - N/A   Overcast
9:55 PM 50.0 °F - 46.4 °F 87% 30.36 in 6.2 mi WNW 4.6 mph - N/A   Overcast
10:00 PM 51 °F - 46 °F 75% 30.39 in 10 mi WNW 4.5 mph - -   Overcast
10:25 PM 50.0 °F - 46.4 °F 87% 30.39 in 6.2 mi West 3.5 mph - N/A   Overcast
10:51 PM 50.0 °F - 44.6 °F 82% 30.39 in 6.2 mi NW 3.5 mph - N/A   Overcast
10:55 PM 50.0 °F - 46.4 °F 87% 30.39 in 6.2 mi NW 4.6 mph - N/A   Mostly Cloudy
11:00 PM 50 °F - 46 °F 79% 30.41 in 8 mi NNW 4.5 mph - -   Overcast
11:20 PM 50.0 °F - 46.4 °F 87% 30.39 in 6.2 mi NNW 3.5 mph - N/A   Overcast
11:25 PM 50.0 °F - 46.4 °F 87% 30.39 in 6.2 mi NNW 4.6 mph - N/A   Overcast
11:30 PM 50.0 °F - 46.4 °F 87% 30.39 in 6.2 mi NNW 4.6 mph - N/A   Overcast
11:34 PM 50.0 °F - 46.4 °F 87% 30.39 in 6.2 mi NNW 4.6 mph - N/A   Overcast
11:55 PM 48.2 °F - 44.6 °F 87% 30.39 in 6.2 mi North 2.3 mph - N/A   Overcast